星链-3792 (STARLINK-3792 )

导读

STARLINK-3792是由美国于2022年4月29日发射的星链系列卫星,归属SpaceX星链互联网星座项目。星链计划旨在构建全球卫星互联网络,该卫星承担低轨宽带信号中继任务,服务全球偏远地区及民用通信场景,是星链星座扩容、提升覆盖能力的重要组成单元,运行于近地轨道。

基本信息
目录编号:
52339
目录名称:
STARLINK-3792
国际标识:
2022-045J
轨道中心:
EARTH
卫星名称:
星链-3792
卫星全名:
星链-3792 (STARLINK-3792 )
卫星状态:
在轨 (已飞行1510 天)
发射日期:
2022-04-29 UTC
国别 :
美国 (US)
星等 :
--
轨道信息
数据来源 国际轨道数据 AOE轨道数据
星历时间 2026-06-17T11:37:33+0800
12小时前
查看轨道信息
2026-06-14T03:00:00+0800
3天前
查看轨道信息
半长轴 6917.55km 6917.908km
偏心率 0.0001055 0.0001238
轨道倾角 53.161° 53.159°
近地点辐角 47.110° 95.752°
升交点赤经 122.169° 137.272°
平近点角 312.998° 6.426°
近地点 538.683km 538.914km
远地点 540.143km 540.628km
周期 95.431分钟 95.438分钟
每日圈数 15.089482 15.088312
详细信息
固有亮度:
5
最大亮度:
2.5
卫星平台:
Starlink v1.5
覆盖范围:
全球
运营商:
太空探索技术公司
运营商所在国:
美国
制造商(研发单位):
太空探索技术公司
制造商所在国:
美国
使用方式:
暂无
卫星简介
星链(Starlink)计划是由太空探索技术公司(SpaceX)提出的一个巨型低轨卫星互联网星座项目,计划在2019年至2024年间在太空搭建由约1.2万颗卫星组成的“星链”网络,其中1584颗将部署在地球上空550千米处的近地轨道,并从2020年开始工作。该卫星仍在工作。
2D轨道图
3D轨道图
轨道高度分析图
轨道倾角分析图
轨道综合分析图
查看轨道综合分析图